{"data":{"norad_id":44949,"intl_designator":"2020-001AM","name":"STARLINK-1122","alt_names":[],"object_type":"PAYLOAD","status":"ACTIVE","operator":null,"country":"US","launch_date":"2020-01-07","launch_site_code":"AFETR","launch_vehicle":null,"mission":null,"orbit_class":"UNKNOWN","rcs_meters":null,"size_class":null,"mass_kg":null,"dimensions":null,"purposes":["comms"],"wikipedia_slug":null,"has_3d_model":false,"image_url":null,"decayed_at":null,"tle_current":{"epoch":"2026-09-19T23:39:12.441024Z","epoch_age_seconds":58703,"freshness":"FRESH","line1":"1 44949U 20001AM  26262.98556066  .00021328  00000+0  20549-3 0  9994","line2":"2 44949  53.1460 107.2762 0002687  91.2578 268.8747 15.66501672370394","mean_motion":15.66501672,"eccentricity":0.0002687,"inclination_deg":53.146,"raan_deg":107.2762,"arg_perigee_deg":91.2578,"mean_anomaly_deg":268.8747,"bstar":0.00020549,"rev_number":37039,"period_min":91.924574722063,"perigee_km":367.11048793953,"apogee_km":370.73635821089,"semimajor_km":6747.0604230752,"source":"CELESTRAK","updated_at":"2026-09-20T09:00:38.221609Z"}}}